Weather History for Chrysopouli, Greece

Change the Weather History Date:

Wednesday, September 12, 2012

  Actual Average Record
Temperature  
Mean Temperature 68 °F -  
Max Temperature 78 °F 76 °F 84 °F (2008)
Min Temperature 59 °F 58 °F 51 °F (2004)
Cooling Degree Days 4    
Growing Degree Days 18 (Base 50)    
Moisture  
Dew Point 55 °F    
Average Humidity 59    
Maximum Humidity 82    
Minimum Humidity 39    
Precipitation  
Precipitation 0.00 in - - ()
Sea Level Pressure  
Sea Level Pressure 29.90 in    
Wind  
Wind Speed 7 mph ()    
Max Wind Speed 12 mph    
Max Gust Speed -    
Visibility 6.2 miles    
Events      
Averages and records for this station are not official NWS values.
T = Trace of Precipitation, MM = Missing Value Source: Averaged Metar Reports

Daily Weather History Graph

Daily Weather History Graph

Search for Another Location

Airport:

Trip Planner

Search our weather history database for the weather conditions in past years. The results will help you decide how hot, cold, wet, or windy it might be!

Date:

Astronomy

Sep. 12, 2012 Rise Set
Actual Time 6:59 AM EEST 7:35 PM EEST
Civil Twilight 6:31 AM EEST 8:02 PM EEST
Nautical Twilight 5:58 AM EEST 8:35 PM EEST
Astronomical Twilight 5:25 AM EEST 9:09 PM EEST
Moon 2:55 AM EEST (9/12) 5:12 PM EEST (9/12)
Length of Visible Light 13h 31m
Length of Day
12h 36m
Waning Crescent, 16% of the Moon is Illuminated
Sep 12
Waning Crescent
Sep 16
New
Sep 22
First Quarter
Sep 30
Full
Oct 8
Last Quarter

Hourly Weather History & Observations

Time (EEST) Temp. Dew Point Humidity Pressure Visibility Wind Dir Wind Speed Gust Speed Precip Events Conditions
5:20 AM 59.0 °F 51.8 °F 77% 29.98 in 6.2 mi East 5.8 mph - N/A   Scattered Clouds
5:50 AM 59.0 °F 50.0 °F 72% 29.98 in 6.2 mi East 4.6 mph - N/A   Scattered Clouds
6:20 AM 59.0 °F 50.0 °F 72% 29.98 in 6.2 mi ENE 4.6 mph - N/A   Scattered Clouds
6:50 AM 59.0 °F 53.6 °F 82% 29.95 in 6.2 mi ENE 5.8 mph - N/A   Scattered Clouds
7:20 AM 59.0 °F 53.6 °F 82% 29.95 in 6.2 mi NE 4.6 mph - N/A   Scattered Clouds
7:50 AM 60.8 °F 51.8 °F 72% 29.95 in 6.2 mi NE 5.8 mph - N/A   Scattered Clouds
8:20 AM 62.6 °F 51.8 °F 68% 29.95 in 6.2 mi ENE 8.1 mph - N/A   Scattered Clouds
8:50 AM 66.2 °F 51.8 °F 60% 29.95 in 6.2 mi ENE 8.1 mph - N/A   Scattered Clouds
9:20 AM 68.0 °F 51.8 °F 56% 29.95 in 6.2 mi East 10.4 mph - N/A   Scattered Clouds
9:50 AM 69.8 °F 53.6 °F 56% 29.95 in 6.2 mi East 10.4 mph - N/A   Partly Cloudy
10:20 AM 69.8 °F 53.6 °F 56% 29.95 in 6.2 mi East 8.1 mph - N/A   Partly Cloudy
10:50 AM 71.6 °F 51.8 °F 50% 29.95 in 6.2 mi East 9.2 mph - N/A   Scattered Clouds
11:20 AM 71.6 °F 51.8 °F 50% 29.95 in 6.2 mi East 8.1 mph - N/A   Scattered Clouds
11:50 AM 73.4 °F 53.6 °F 50% 29.95 in 6.2 mi SE 10.4 mph - N/A   Scattered Clouds
12:20 PM 73.4 °F 53.6 °F 50% 29.92 in 6.2 mi SE 11.5 mph - N/A   Scattered Clouds
12:50 PM 75.2 °F 55.4 °F 50% 29.92 in 6.2 mi SE 11.5 mph - N/A   Partly Cloudy
1:20 PM 75.2 °F 55.4 °F 50% 29.92 in 6.2 mi SE 11.5 mph - N/A   Partly Cloudy
1:50 PM 75.2 °F 55.4 °F 50% 29.92 in 6.2 mi SSE 10.4 mph - N/A   Partly Cloudy
2:20 PM 77.0 °F 55.4 °F 47% 29.89 in 6.2 mi SSE 10.4 mph - N/A   Partly Cloudy
2:50 PM 77.0 °F 53.6 °F 44% 29.89 in 6.2 mi SSE 10.4 mph - N/A   Partly Cloudy
3:20 PM 77.0 °F 53.6 °F 44% 29.86 in 6.2 mi SE 6.9 mph - N/A   Partly Cloudy
3:50 PM 78.8 °F 51.8 °F 39% 29.86 in 6.2 mi SSW 5.8 mph - N/A   Partly Cloudy
4:20 PM 78.8 °F 51.8 °F 39% 29.86 in 6.2 mi South 8.1 mph - N/A   Partly Cloudy
4:50 PM 75.2 °F 55.4 °F 50% 29.86 in 6.2 mi SW 8.1 mph - N/A   Partly Cloudy
5:20 PM 75.2 °F 55.4 °F 50% 29.83 in 6.2 mi WSW 8.1 mph - N/A   Partly Cloudy
5:50 PM 75.2 °F 59.0 °F 57% 29.83 in 6.2 mi WSW 6.9 mph - N/A   Partly Cloudy
6:20 PM 75.2 °F 59.0 °F 57% 29.83 in 6.2 mi West 6.9 mph - N/A   Partly Cloudy
6:50 PM 73.4 °F 59.0 °F 61% 29.83 in - WSW 6.9 mph - N/A   Clear
7:20 PM 71.6 °F 59.0 °F 64% 29.83 in - WSW 6.9 mph - N/A   Clear
7:50 PM 69.8 °F 59.0 °F 68% 29.83 in - Variable 4.6 mph - N/A   Clear
8:20 PM 68.0 °F 59.0 °F 73% 29.83 in - West 5.8 mph - N/A   Clear
8:50 PM 66.2 °F 57.2 °F 73% 29.83 in - WNW 5.8 mph - N/A   Clear
9:20 PM 66.2 °F 57.2 °F 73% 29.83 in - Calm Calm - N/A   Clear
9:50 PM 64.4 °F 57.2 °F 77% 29.83 in - NW 5.8 mph - N/A   Clear